Wind_Speed
15 15 15 13 13 13 12 11 11 11 12 14 14 15 16 18 19 20 20 21 20 19 17 16 15 14 15 15 14 13 13 13 15 16 14 11 9 8 8 8 8 8 8
16 16 16 15 13 13 13 12 11 12 12 14 14 14 15 16 17 18 19 20 20 19 18 17 16 16 17 17 16 16 15 15 15 14 13 11 10 9 9 9 9 8 8
17 17 17 16 14 13 13 13 13 13 13 13 13 14 14 15 16 17 18 18 18 18 17 16 16 16 17 19 19 18 17 16 15 14 13 12 11 11 10 9 9 9 8
17 18 18 17 15 14 14 14 14 14 14 14 14 14 14 14 14 14 16 17 17 17 16 15 15 15 16 18 20 20 19 17 16 15 14 13 12 12 11 10 10 9 8
18 18 19 18 17 15 15 15 15 15 15 15 15 14 14 13 13 13 14 16 17 17 16 15 14 13 14 16 18 20 20 19 18 17 15 14 13 12 11 10 10 9 8
19 19 20 20 19 17 16 15 16 16 16 16 16 15 14 13 13 12 13 15 16 17 16 15 15 14 14 15 16 17 18 19 18 17 16 15 13 12 11 10 9 9 8
22 22 22 22 20 19 18 16 17 18 18 18 17 16 15 13 12 11 11 13 14 14 15 15 15 14 14 14 15 16 16 17 17 16 15 14 13 11 10 9 9 8 8
24 24 24 24 23 22 20 19 18 19 20 20 20 18 16 14 12 10 10 11 12 12 13 14 14 14 14 14 14 14 14 14 14 14 13 13 12 11 10 9 8 8 8
26 26 25 25 25 23 21 21 21 21 21 21 21 20 18 15 12 11 9 9 10 11 12 13 14 15 15 15 15 15 14 13 12 12 12 11 11 11 11 9 8 8 8
27 27 26 27 26 26 24 24 24 23 22 21 22 22 20 18 15 12 11 9 8 9 10 11 13 15 16 17 17 16 16 14 14 13 12 12 12 12 12 11 10 9 10
27 27 27 27 27 27 27 27 25 25 23 22 22 22 22 21 19 16 14 12 10 9 9 9 11 13 15 17 17 17 17 17 16 16 15 15 14 14 15 14 14 13 12
26 26 26 26 27 28 28 27 25 25 23 23 23 23 23 23 23 20 17 15 13 11 11 10 10 11 13 15 16 17 17 17 17 17 17 17 17 17 17 18 17 17 16
24 24 24 25 26 27 27 27 26 25 24 24 24 25 25 25 25 23 21 18 16 14 13 13 12 12 12 13 14 15 16 16 17 17 17 17 18 18 19 19 19 19 19
21 21 22 23 23 23 24 24 25 24 25 24 25 26 26 28 28 27 25 22 20 17 16 15 15 15 14 14 14 14 15 16 16 16 17 17 17 18 19 19 20 20 21
19 19 19 20 20 20 21 21 21 23 24 25 24 25 26 29 30 29 28 26 23 21 18 17 17 16 16 16 16 16 16 16 17 17 17 17 17 18 18 18 19 19 20
18 18 17 17 18 18 19 20 20 21 21 22 23 24 27 29 31 32 31 30 28 25 22 20 19 18 17 17 17 18 18 18 18 18 19 19 19 18 18 18 19 19 20
18 18 17 17 17 17 18 18 19 19 20 20 22 24 26 29 30 32 32 32 31 29 26 24 22 21 19 18 18 17 18 18 19 19 19 20 19 19 19 19 20 20 21
19 19 19 19 18 18 19 19 20 20 20 19 20 21 22 26 29 31 32 32 32 31 29 27 25 24 23 22 21 20 19 19 19 19 19 20 20 20 20 20 21 21 22
20 21 21 20 20 20 20 20 21 21 21 20 20 19 20 23 26 30 31 32 33 33 31 29 28 27 25 25 24 23 22 21 20 20 21 21 21 22 22 22 22 22 23
22 22 22 22 22 22 22 22 22 22 22 21 21 21 21 22 24 26 28 30 32 33 32 31 29 28 28 27 27 28 26 24 23 23 23 24 24 24 24 24 24 24 24
23 23 23 22 23 23 23 23 23 23 23 23 23 23 22 21 23 24 26 28 30 31 31 31 30 30 30 30 29 30 29 28 26 26 26 25 25 26 26 25 25 25 24
24 24 24 23 23 23 24 24 23 23 23 23 23 23 23 22 23 24 25 26 28 30 31 31 31 31 30 31 30 29 29 29 29 29 29 28 27 27 27 27 26 25 25
24 24 24 24 23 23 24 24 24 24 24 24 23 23 23 23 22 23 24 25 26 28 30 31 31 31 31 30 31 30 30 30 31 31 31 31 30 29 29 28 27 27 26
24 24 24 24 24 23 24 24 25 25 25 25 24 24 24 23 23 22 23 25 25 26 27 28 30 31 31 31 31 31 31 31 30 31 33 33 32 30 30 29 28 27 27
24 24 24 25 24 24 25 25 25 26 26 25 25 24 24 24 24 24 23 24 24 25 26 27 28 30 32 32 32 32 32 32 30 31 34 33 32 31 30 30 29 28 28
23 24 24 25 25 24 25 26 26 26 26 27 26 26 25 25 24 24 24 23 24 25 25 25 26 28 30 31 32 32 32 33 32 32 33 33 32 32 30 31 31 29 28
Wind_Direction
321 319 318 311 299 284 274 268 259 248 246 248 245 244 246 246 245 244 244 246 248 250 254 257 254 244 234 226 223 220 213 207 206 206 209 218 233 249 262 267 268 270 275
322 320 318 313 302 288 277 269 260 250 248 249 249 248 248 250 249 248 246 246 247 250 254 254 251 241 231 225 222 221 217 212 211 213 218 230 245 256 262 263 263 264 268
321 319 317 312 304 292 279 269 260 252 249 249 251 250 250 253 254 250 246 245 246 247 248 247 244 237 230 225 222 222 220 219 220 224 230 242 254 260 262 259 258 259 263
315 314 312 309 303 294 281 268 259 253 249 247 249 251 252 255 256 253 247 242 242 243 245 243 238 231 227 225 223 223 223 225 227 231 239 248 255 260 258 254 253 255 258
306 307 306 304 302 294 284 271 259 254 249 246 246 250 254 259 260 255 248 244 244 246 245 240 234 228 226 226 225 225 226 228 231 236 242 248 253 253 250 247 248 249 250
299 299 299 299 298 291 283 273 260 253 248 244 244 248 254 260 262 258 250 246 246 246 243 239 234 231 230 228 226 227 228 231 234 237 241 245 246 243 240 240 241 242 242
294 294 292 292 293 289 281 272 262 254 248 242 242 245 250 255 260 258 251 247 245 242 239 237 235 235 234 231 229 228 229 232 235 236 237 237 235 232 229 227 230 234 238
289 289 288 286 286 286 278 273 266 258 249 240 239 241 243 246 252 253 249 245 241 237 234 232 232 233 235 233 230 228 228 231 232 233 232 228 225 221 219 219 225 232 238
288 286 284 281 280 279 276 272 268 264 254 242 236 236 235 236 242 245 245 242 238 234 230 227 226 228 231 231 229 227 227 227 228 228 227 225 222 219 219 223 230 237 243
286 284 281 277 274 272 271 272 270 268 262 249 239 234 233 231 232 237 239 239 237 233 229 227 225 226 230 231 231 229 228 229 229 230 231 231 231 229 230 234 239 246 250
285 282 277 272 270 269 268 269 270 268 264 256 247 237 232 229 229 232 234 235 235 234 230 228 227 227 231 234 235 235 236 236 238 239 241 242 242 243 243 245 247 250 252
285 281 276 271 267 266 265 264 266 265 263 263 257 246 236 230 229 229 232 233 235 236 235 232 231 230 232 235 237 239 241 242 243 244 245 247 248 249 249 249 249 249 251
286 283 277 271 267 264 262 260 264 266 263 263 263 252 241 234 230 229 229 231 233 236 237 237 236 236 236 238 238 240 241 242 242 243 245 247 248 250 251 251 251 250 250
287 284 277 271 267 263 261 259 261 265 264 264 263 253 245 238 231 230 228 228 229 232 237 240 242 240 240 241 240 242 242 243 244 244 245 247 249 250 252 252 253 252 252
286 284 279 272 267 263 260 261 262 264 264 261 260 251 245 241 234 230 229 228 228 230 234 239 244 245 245 244 244 246 246 247 249 249 249 250 251 251 252 253 254 255 254
286 283 280 275 270 266 263 261 264 265 263 258 255 254 249 245 239 233 231 229 230 233 235 237 241 245 247 247 246 249 250 251 252 253 253 253 253 254 254 255 257 258 258
286 284 281 277 273 269 266 265 266 266 263 260 259 257 251 245 240 237 234 233 233 234 236 239 240 242 244 247 247 248 251 253 254 256 256 255 254 254 256 258 260 261 261
286 283 281 277 273 270 267 265 266 268 264 264 263 260 253 245 242 238 236 236 236 235 237 240 240 241 242 246 249 249 251 254 255 256 257 256 256 257 259 260 262 263 263
287 284 281 277 273 270 267 267 266 267 266 264 261 260 258 251 244 239 238 239 239 239 239 241 242 243 243 244 248 250 251 252 256 257 258 259 259 260 261 263 264 265 265
288 284 281 278 275 272 269 268 267 266 266 266 263 260 261 255 246 243 242 241 241 240 240 242 243 245 246 246 248 251 252 253 254 257 258 260 261 261 262 263 263 264 263
287 285 282 278 276 274 271 268 266 266 267 267 266 263 262 259 249 246 245 244 243 241 241 242 243 246 249 250 250 250 252 254 254 256 258 259 260 261 262 262 262 261 262
286 285 283 280 277 274 271 269 267 266 267 267 266 265 264 261 255 250 248 249 247 244 242 243 244 245 249 252 252 251 253 254 254 254 255 258 259 260 261 261 261 261 261
286 284 283 281 277 274 271 268 267 266 265 264 265 265 265 263 261 254 250 249 250 248 245 245 245 245 247 250 254 255 256 255 254 254 254 255 257 258 260 261 260 260 260
286 284 281 278 277 274 271 269 267 266 265 265 264 263 263 262 262 260 256 253 252 251 249 249 247 246 247 249 254 257 257 256 254 253 253 253 254 254 256 257 257 258 257
285 282 279 276 274 272 271 268 266 265 264 264 263 263 261 261 259 258 257 256 254 253 252 251 250 248 248 249 251 253 255 256 255 253 254 253 253 252 252 253 254 255 256
286 282 278 275 272 270 268 266 265 264 263 262 262 261 259 259 258 258 256 256 255 254 252 251 251 249 247 248 249 250 250 252 253 253 255 254 252 251 250 251 253 254 255
Height
5857 5856 5856 5855 5855 5855 5856 5856 5856 5857 5857 5858 5859 5859 5860 5861 5862 5865 5866 5868 5870 5871 5873 5874 5875 5876 5878 5880 5881 5883 5884 5886 5888 5890 5892 5894 5895 5896 5896 5897 5897 5897 5898
5855 5854 5853 5853 5853 5853 5853 5854 5854 5854 5855 5855 5856 5857 5857 5858 5859 5861 5863 5864 5866 5868 5869 5871 5872 5873 5875 5877 5879 5881 5883 5885 5887 5889 5890 5892 5893 5894 5895 5895 5895 5896 5896
5853 5852 5851 5850 5850 5850 5851 5851 5851 5852 5852 5853 5854 5854 5855 5855 5856 5857 5859 5861 5862 5864 5866 5867 5868 5870 5872 5874 5877 5879 5882 5884 5885 5887 5889 5890 5891 5892 5893 5893 5893 5894 5895
5851 5850 5848 5847 5847 5848 5848 5848 5849 5849 5850 5850 5851 5852 5852 5853 5853 5854 5855 5857 5859 5861 5862 5864 5865 5867 5869 5871 5874 5877 5879 5881 5883 5885 5887 5888 5889 5890 5890 5891 5892 5892 5893
5848 5847 5845 5845 5844 5845 5845 5845 5846 5847 5847 5847 5848 5849 5849 5850 5850 5851 5852 5854 5856 5857 5859 5861 5863 5865 5867 5869 5871 5874 5876 5878 5881 5882 5884 5885 5887 5887 5888 5889 5890 5891 5892
5845 5844 5842 5842 5842 5841 5842 5842 5842 5843 5844 5844 5845 5846 5847 5847 5847 5848 5849 5850 5852 5854 5856 5858 5861 5863 5865 5867 5869 5871 5874 5876 5878 5880 5881 5883 5884 5885 5886 5887 5888 5889 5890
5841 5840 5839 5838 5838 5838 5838 5838 5838 5839 5840 5841 5842 5843 5844 5845 5845 5845 5846 5847 5849 5851 5853 5856 5858 5861 5863 5865 5867 5869 5871 5873 5875 5877 5878 5880 5881 5883 5884 5885 5886 5887 5889
5836 5836 5835 5834 5834 5834 5834 5834 5834 5835 5835 5837 5838 5840 5841 5843 5843 5843 5844 5845 5846 5847 5850 5852 5855 5858 5860 5862 5864 5866 5869 5871 5872 5874 5876 5877 5879 5881 5882 5884 5885 5886 5887
5830 5830 5829 5829 5829 5829 5829 5830 5830 5831 5831 5832 5834 5836 5838 5839 5840 5841 5841 5842 5843 5845 5847 5849 5852 5855 5857 5859 5862 5864 5866 5868 5870 5872 5874 5875 5877 5879 5881 5882 5883 5884 5885
5823 5823 5823 5823 5823 5823 5823 5824 5825 5826 5826 5827 5829 5831 5834 5836 5837 5838 5840 5840 5842 5843 5844 5847 5849 5851 5854 5856 5858 5861 5863 5865 5867 5869 5871 5873 5875 5877 5878 5880 5881 5882 5883
5816 5815 5815 5816 5816 5817 5817 5818 5819 5820 5821 5822 5824 5826 5828 5831 5833 5835 5837 5838 5840 5841 5842 5844 5846 5848 5850 5853 5855 5857 5859 5862 5864 5866 5868 5870 5872 5873 5875 5877 5878 5879 5881
5808 5808 5807 5808 5809 5810 5811 5812 5813 5814 5815 5817 5818 5820 5823 5826 5829 5832 5833 5835 5837 5839 5840 5842 5844 5845 5847 5849 5852 5854 5856 5858 5860 5862 5864 5866 5868 5869 5871 5873 5874 5876 5877
5802 5801 5800 5801 5801 5802 5803 5805 5807 5807 5809 5810 5812 5814 5817 5820 5824 5827 5830 5832 5834 5836 5838 5839 5841 5843 5844 5846 5848 5850 5853 5855 5857 5858 5860 5862 5864 5865 5867 5868 5870 5871 5873
5796 5795 5794 5794 5794 5795 5797 5798 5800 5801 5803 5804 5806 5808 5811 5814 5818 5821 5824 5827 5830 5832 5834 5836 5837 5839 5841 5843 5845 5847 5849 5851 5853 5855 5856 5858 5859 5861 5862 5863 5865 5866 5868
5791 5790 5789 5789 5789 5790 5791 5793 5794 5796 5796 5798 5799 5801 5804 5808 5811 5815 5819 5822 5825 5828 5830 5832 5834 5836 5838 5839 5841 5843 5845 5847 5849 5850 5852 5853 5855 5856 5857 5859 5860 5861 5863
5786 5785 5785 5785 5785 5785 5787 5788 5789 5790 5791 5792 5793 5795 5797 5801 5804 5808 5812 5816 5819 5822 5825 5828 5829 5831 5833 5835 5837 5839 5840 5842 5844 5846 5847 5849 5850 5851 5853 5854 5855 5856 5858
5782 5781 5781 5781 5781 5781 5782 5783 5784 5785 5785 5786 5788 5789 5790 5793 5797 5801 5805 5809 5812 5816 5819 5822 5824 5826 5828 5830 5832 5834 5836 5837 5839 5841 5842 5844 5845 5847 5848 5849 5850 5851 5852
5778 5777 5777 5776 5777 5777 5777 5778 5779 5780 5780 5781 5782 5783 5784 5787 5790 5794 5797 5801 5805 5809 5812 5815 5818 5820 5823 5825 5827 5829 5831 5832 5834 5836 5837 5839 5840 5842 5843 5844 5845 5846 5847
5773 5772 5772 5772 5772 5772 5773 5773 5774 5775 5776 5777 5778 5778 5779 5781 5784 5787 5791 5794 5798 5801 5805 5808 5811 5814 5817 5819 5821 5823 5825 5827 5829 5830 5832 5833 5835 5836 5838 5839 5840 5840 5841
5767 5766 5766 5766 5766 5767 5767 5768 5768 5769 5770 5771 5772 5774 5775 5776 5778 5780 5784 5787 5790 5794 5797 5801 5803 5806 5809 5812 5814 5816 5818 5821 5823 5824 5826 5827 5829 5830 5831 5832 5833 5834 5835
5761 5760 5760 5760 5760 5760 5761 5762 5763 5763 5764 5765 5766 5768 5769 5770 5772 5774 5777 5780 5783 5786 5790 5793 5796 5798 5801 5804 5807 5809 5811 5814 5817 5818 5819 5821 5822 5823 5824 5825 5827 5828 5829
5755 5754 5753 5753 5754 5754 5754 5755 5756 5757 5759 5760 5761 5762 5763 5765 5766 5768 5770 5773 5776 5779 5782 5785 5788 5791 5793 5795 5798 5801 5803 5806 5808 5810 5811 5813 5814 5816 5817 5818 5820 5821 5822
5748 5747 5747 5746 5747 5747 5747 5748 5749 5751 5752 5754 5755 5756 5758 5759 5760 5761 5764 5766 5769 5771 5774 5777 5780 5783 5785 5787 5790 5793 5795 5797 5799 5801 5803 5805 5806 5808 5809 5810 5812 5813 5814
5741 5741 5740 5740 5740 5740 5741 5741 5742 5744 5745 5747 5748 5750 5752 5753 5754 5756 5758 5760 5762 5764 5766 5769 5772 5775 5777 5779 5781 5783 5785 5787 5790 5792 5793 5796 5798 5800 5802 5802 5804 5805 5806
5735 5734 5733 5732 5733 5734 5734 5735 5736 5737 5738 5739 5741 5743 5745 5746 5748 5750 5751 5753 5755 5757 5759 5761 5763 5766 5768 5771 5773 5775 5776 5778 5781 5783 5784 5787 5789 5791 5793 5794 5796 5797 5798
5728 5727 5726 5725 5725 5726 5727 5727 5728 5730 5731 5732 5734 5736 5738 5739 5741 5743 5745 5746 5748 5749 5751 5753 5755 5757 5760 5762 5764 5766 5768 5769 5771 5774 5775 5778 5781 5783 5785 5786 5787 5789 5791